Weather History for Brooksville, FL

Change the Weather History Date:

Tuesday, November 20, 2012

  Actual Average Record
Temperature  
Mean Temperature 62 °F -  
Max Temperature 75 °F 74 °F 84 °F (1998)
Min Temperature 50 °F 50 °F 28 °F (2008)
Degree Days  
Heating Degree Days 2    
Growing Degree Days 12 (Base 50)    
Moisture  
Dew Point 54 °F    
Average Humidity 82    
Maximum Humidity 100    
Minimum Humidity 50    
Precipitation  
Precipitation 0.00 in - - ()
Sea Level Pressure  
Sea Level Pressure 30.07 in    
Wind  
Wind Speed 5 mph (North)    
Max Wind Speed 13 mph    
Max Gust Speed 16 mph    
Visibility 7 miles    
Events Fog    
Averages and records for this station are not official NWS values.
T = Trace of Precipitation, MM = Missing Value Source: NWS Daily Summary

Daily Weather History Graph

Daily Weather History Graph

Search for Another Location

Airport:

Trip Planner

Search our weather history database for the weather conditions in past years. The results will help you decide how hot, cold, wet, or windy it might be!

Date:

Astronomy

Nov. 20, 2012 Rise Set
Actual Time 6:56 AM EST 5:34 PM EST
Civil Twilight 6:31 AM EST 5:59 PM EST
Nautical Twilight 6:02 AM EST 6:28 PM EST
Astronomical Twilight 5:34 AM EST 6:56 PM EST
Moon 12:47 PM EST (11/20) No Moon Set
Length of Visible Light 11h 28m
Length of Day
10h 37m
Waxing Crescent, 51% of the Moon is Illuminated
Nov 20
Waxing Crescent
Nov 28
Full
Dec 6
Last Quarter
Dec 13
New
Dec 20
First Quarter

Hourly Weather History & Observations

Time (EST) Temp. Dew Point Humidity Pressure Visibility Wind Dir Wind Speed Gust Speed Precip Events Conditions
12:53 AM 57.9 °F 53.1 °F 84% 30.10 in 10.0 mi North 3.5 mph - N/A   Overcast
1:53 AM 57.9 °F 53.1 °F 84% 30.09 in 10.0 mi North 4.6 mph - N/A   Overcast
2:53 AM 57.9 °F 54.0 °F 87% 30.07 in 10.0 mi NNW 4.6 mph - N/A   Overcast
3:53 AM 59.0 °F 54.0 °F 83% 30.08 in 10.0 mi NNW 8.1 mph - N/A   Overcast
4:53 AM 59.0 °F 54.0 °F 83% 30.08 in 10.0 mi North 6.9 mph - N/A   Overcast
5:53 AM 59.0 °F 54.0 °F 83% 30.09 in 10.0 mi North 11.5 mph - N/A   Overcast
6:32 AM 57.2 °F 53.6 °F 88% 30.10 in 10.0 mi NNW 9.2 mph - N/A   Scattered Clouds
6:53 AM 57.0 °F 53.1 °F 87% - 10.0 mi NNW 8.1 mph - N/A   Clear
7:53 AM 59.0 °F 54.0 °F 83% 30.11 in 10.0 mi NNW 5.8 mph - N/A   Clear
8:53 AM 63.0 °F 53.1 °F 70% 30.11 in 10.0 mi North 10.4 mph - N/A   Clear
9:53 AM 68.0 °F 54.0 °F 61% 30.11 in 10.0 mi NNE 10.4 mph - N/A   Clear
10:53 AM 70.0 °F 55.0 °F 59% 30.12 in 10.0 mi North 6.9 mph - N/A   Clear
11:53 AM 73.0 °F 54.0 °F 51% 30.09 in 10.0 mi NE 5.8 mph 16.1 mph N/A   Clear
12:53 PM 73.9 °F 55.0 °F 52% 30.05 in 10.0 mi North 12.7 mph - N/A   Clear
2:53 PM 75.0 °F 55.0 °F 50% 30.02 in 10.0 mi NNE 8.1 mph - N/A   Clear
3:53 PM 73.9 °F 55.0 °F 52% 30.00 in 10.0 mi NNE 10.4 mph - N/A   Clear
4:53 PM 70.0 °F 57.0 °F 63% 30.02 in 10.0 mi NW 9.2 mph - N/A   Partly Cloudy
5:53 PM 64.0 °F 57.9 °F 80% 30.02 in 10.0 mi NW 5.8 mph - N/A   Clear
6:53 PM 62.1 °F 59.0 °F 90% 30.04 in 10.0 mi NW 5.8 mph - N/A   Clear
7:53 PM 61.0 °F 59.0 °F 93% 30.06 in 10.0 mi NNW 3.5 mph - N/A   Clear
8:53 PM 57.9 °F 55.9 °F 93% 30.07 in 9.0 mi Calm Calm - N/A   Clear
9:10 PM 57.2 °F 55.4 °F 94% 30.07 in 1.2 mi Calm Calm - N/A   Clear
9:17 PM 55.4 °F 55.4 °F 100% 30.08 in 0.2 mi Calm Calm - N/A Fog Fog
9:31 PM 55.4 °F 53.6 °F 94% 30.08 in 1.2 mi Calm Calm - N/A   Partly Cloudy
9:33 PM 55.4 °F 55.4 °F 100% 30.08 in 4.0 mi Calm Calm - N/A   Partly Cloudy
9:53 PM 55.0 °F 55.0 °F 100% 30.08 in 7.0 mi Calm Calm - N/A   Clear
10:40 PM 50.0 °F 50.0 °F 100% 30.08 in 1.5 mi Calm Calm - N/A   Clear
10:49 PM 51.8 °F 51.8 °F 100% 30.08 in 0.2 mi Calm Calm - N/A Fog Fog
10:53 PM 51.1 °F 51.1 °F 100% 30.07 in 0.2 mi Calm Calm - N/A Fog Fog
11:21 PM 53.6 °F 51.8 °F 94% 30.07 in 0.2 mi Calm Calm - N/A Fog Fog
11:53 PM 50.0 °F 48.9 °F 96% 30.06 in 0.2 mi Calm Calm - N/A Fog Fog